This is the latest recevied weather packets stored in our database for station/object K6CQU-13. If no packets are shown the sender has not sent any weather packets the latest 10 day(s).
| Time | Temp. | Humidity | Pressure | Rain* | Wind** | Luminosity | Snow |
|---|---|---|---|---|---|---|---|
| 1788049517 | 31.11° C | 18% | 1011 hPa | 0 mm | - | 403 W/m² | - |
| 1788049217 | 31.67° C | 19% | 1011 hPa | 0 mm | - | 418 W/m² | - |
| 1788048916 | 31.67° C | 19% | 1011 hPa | 0 mm | - | 433 W/m² | - |
| 1788048616 | 31.67° C | 18% | 1011.1 hPa | 0 mm | - | 447 W/m² | - |
| 1788048316 | 31.67° C | 19% | 1011.1 hPa | 0 mm | - | 463 W/m² | - |
| 1788048017 | 31.67° C | 19% | 1011.1 hPa | 0 mm | - | 478 W/m² | - |
| 1788047716 | 31.67° C | 19% | 1011.1 hPa | 0 mm | - | 493 W/m² | - |
| 1788047416 | 31.67° C | 19% | 1011.1 hPa | 0 mm | - | 509 W/m² | - |
| 1788047117 | 31.67° C | 20% | 1011.1 hPa | 0 mm | - | 525 W/m² | - |
| 1788046817 | 30.56° C | 22% | 1011.1 hPa | 0 mm | - | 538 W/m² | - |
| 1788046516 | 29.44° C | 25% | 1011.1 hPa | 0 mm | - | 550 W/m² | - |
| 1788046216 | 29.44° C | 39% | 1011.2 hPa | 0 mm | - | 564 W/m² | - |
| 1788045917 | 29.44° C | 40% | 1011.1 hPa | 0 mm | - | 576 W/m² | - |
| 1788045616 | 29.44° C | 41% | 1011 hPa | 0 mm | - | 589 W/m² | - |
| 1788045316 | 28.89° C | 40% | 1011.1 hPa | 0 mm | - | 602 W/m² | - |
| 1788045017 | 28.89° C | 40% | 1011.2 hPa | 0 mm | - | 614 W/m² | - |
| 1788044716 | 28.89° C | 41% | 1011.3 hPa | 0 mm | - | 627 W/m² | - |
| 1788044416 | 28.89° C | 39% | 1011.3 hPa | 0 mm | - | 638 W/m² | - |
| 1788044116 | 28.89° C | 39% | 1011.4 hPa | 0 mm | - | 650 W/m² | - |
| 1788043818 | 28.89° C | 39% | 1011.5 hPa | 0 mm | - | 660 W/m² | - |
| 1788043516 | 28.89° C | 40% | 1011.6 hPa | 0 mm | - | 671 W/m² | - |
| 1788043216 | 28.89° C | 41% | 1011.6 hPa | 0 mm | - | 682 W/m² | - |
| 1788042916 | 28.89° C | 41% | 1011.7 hPa | 0 mm | - | 695 W/m² | - |
| 1788042616 | 28.89° C | 40% | 1011.8 hPa | 0 mm | - | 704 W/m² | - |
| 1788042316 | 28.89° C | 39% | 1011.9 hPa | 0 mm | - | 714 W/m² | - |
* Rain latest hour (hover to see other rain measurements)
** Current wind speed in m/s (hover to see current wind gust speed)